Location: Saratoga Springs
(43.0831°N, 73.7850°W)
Time: 05:55:15
(UTC-04:00)

Vanguard 2 - Pass Details

Date: 24 April 2024
Orbit: 553 x 2914 km, 32.9° (Epoch: 17 May)

Event Time Altitude Azimuth Distance (km) Brightness Sun altitude
Rises 01:54:31 0° 238° (WSW) 5,318 - -32.1°
Reaches altitude 10° 01:57:43 10° 233° (SW) 4,597 - -32.0°
Exits shadow 02:08:04 48° 189° (S) 3,161 10.1 -31.3°
Maximum altitude 02:10:55 52° 162° (SSE) 3,163 10.2 -31.1°
Drops below altitude 10° 02:27:40 10° 94° (E) 5,724 12.2 -29.9°
Sets 02:32:10 0° 90° (E) 6,664 12.7 -29.5°
